Location: Bartlow
(52.0833°N, 0.3167°E)
Time: 22:10:46
(UTC+00:00)

Meteor 2-17 Rocket - Visible Passes

Search period start: 24 April 2024 00:00
Search period end: 04 May 2024 00:00
Orbit: 934 x 957 km, 82.5° (Epoch: 23 April)

Date Brightness Start Highest point End Pass type
(mag) Time Alt. Az. Time Alt. Az. Time Alt. Az.
24 Apr 4.8 01:14:16 36° SSE 01:16:40 58° E 01:22:38 10° NNE visible
24 Apr 5.5 02:58:17 18° WSW 03:01:52 30° WNW 03:07:11 10° N visible
24 Apr 6.4 23:46:34 13° ESE 23:49:09 17° ENE 23:52:48 10° NE visible
25 Apr 4.4 01:30:35 39° S 01:33:01 83° E 01:39:08 10° NNE visible
25 Apr 5.9 03:14:36 12° WSW 03:18:37 22° WNW 03:23:15 10° N visible
26 Apr 6.0 00:02:52 19° ESE 00:05:13 24° E 00:09:55 10° NNE visible
26 Apr 4.4 01:46:54 36° SSW 01:49:27 70° WNW 01:55:33 10° N visible
26 Apr 6.3 03:31:50 10° W 03:35:28 16° NW 03:39:06 10° NNW visible
27 Apr 5.5 00:19:10 27° SE 00:21:21 34° E 00:26:45 10° NNE visible
27 Apr 4.8 02:03:11 29° SW 02:05:58 49° WNW 02:11:53 10° N visible
27 Apr 6.5 03:50:29 10° WNW 03:52:26 11° NW 03:54:23 10° NNW visible
28 Apr 5.0 00:35:27 35° SE 00:37:35 49° E 00:43:24 10° NNE visible
28 Apr 5.3 02:19:28 22° WSW 02:22:36 35° WNW 02:28:08 10° N visible
28 Apr 6.5 23:07:42 11° E 23:10:12 14° ENE 23:13:06 10° NE visible
29 Apr 4.5 00:51:44 41° SSE 00:53:53 71° E 00:59:57 10° NNE visible
29 Apr 5.8 02:35:45 16° WSW 02:39:18 25° WNW 02:44:16 10° N visible
29 Apr 6.1 23:23:58 17° ESE 23:26:13 20° E 23:30:29 10° NE visible
30 Apr 4.4 01:07:59 41° SSW 01:10:16 82° W 01:16:24 10° N visible
30 Apr 6.2 02:52:00 10° W 02:56:06 19° WNW 03:00:15 10° NNW visible
30 Apr 5.7 23:40:13 24° ESE 23:42:19 29° E 23:47:26 10° NNE visible
01 May 4.7 01:24:14 34° SW 01:26:45 58° WNW 01:32:46 10° N visible
01 May 6.4 03:10:10 10° W 03:13:01 13° NW 03:15:53 10° NNW visible
01 May 5.2 23:56:27 32° SE 23:58:30 42° E 00:04:09 10° NNE visible
02 May 5.2 01:40:28 26° WSW 01:43:20 41° WNW 01:49:03 10° N visible
02 May 6.6 22:29:30 10° E 22:31:16 11° ENE 22:33:01 10° NE visible
03 May 4.6 00:12:41 39° SSE 00:14:46 60° E 00:20:44 10° NNE visible
03 May 5.6 01:56:42 18° WSW 02:00:00 29° WNW 02:05:15 10° N visible
03 May 6.2 22:44:53 14° ESE 22:47:14 17° ENE 22:50:58 10° NE visible
